, AK

(GMT )
Deadhorse

Weather History for PASC - January, 2014

Change the Weather History Date:

Monday, January 6, 2014

  Actual Average Record
Temperature  
Mean Temperature -3 °F -  
Max Temperature 1 °F -5 °F 33 °F (2005)
Min Temperature -7 °F -18 °F -41 °F (2001)
Degree Days  
Heating Degree Days 68    
Moisture  
Dew Point -8 °F    
Average Humidity 79    
Maximum Humidity 83    
Minimum Humidity 76    
Precipitation  
Precipitation 0.00 in - - ()
Sea Level Pressure  
Sea Level Pressure 29.92 in    
Wind  
Wind Speed 23 mph (East)    
Max Wind Speed 36 mph    
Max Gust Speed 43 mph    
Visibility 9 miles    
Events Snow    
Averages and records for this station are not official NWS values.
T = Trace of Precipitation, MM = Missing Value Source: NWS Daily Summary

Daily Weather History Graph

Daily Weather History Graph

Search for Another Location

Airport or City:

Trip Planner

Search our weather history database for the weather conditions in past years. The results will help you decide how hot, cold, wet, or windy it might be!

Date:

Astronomy

Jan. 06, 2014 Rise Set
Actual Time 12:27 PM AKST 1:32 PM AKST
Civil Twilight 10:37 AM AKST 3:23 PM AKST
Nautical Twilight 8:55 AM AKST 5:05 PM AKST
Astronomical Twilight 7:36 AM AKST 6:23 PM AKST
Moon 11:16 AM AKST (1/6) No Moon Set
Length of Visible Light 4h 46m
Length of Day
1h 04m
Waxing Crescent, 36% of the Moon is Illuminated
Jan 6
Waxing Crescent
Jan 7
First Quarter
Jan 15
Full
Jan 23
Last Quarter
Jan 30
New

Hourly Weather History & Observations

Time (AKST) Temp. Windchill Dew Point Humidity Pressure Visibility Wind Dir Wind Speed Gust Speed Precip Events Conditions
12:53 AM 1.9 °F -23.2 °F -2.9 °F 80% 29.94 in 10.0 mi East 29.9 mph - N/A   Clear
1:53 AM 1.0 °F -25.1 °F -4.0 °F 79% 29.94 in 4.0 mi East 32.2 mph 39.1 mph N/A Snow Blowing Snow
2:53 AM -0.0 °F -27.6 °F -5.1 °F 79% 29.94 in 1.8 mi East 35.7 mph 42.6 mph N/A Snow Blowing Snow
3:23 AM -0.4 °F -27.5 °F -5.8 °F 78% 29.94 in 5.0 mi ESE 33.4 mph - N/A Snow Blowing Snow
3:53 AM -0.9 °F -26.7 °F -6.0 °F 79% 29.94 in 9.0 mi ESE 28.8 mph - N/A   Clear
4:53 AM -0.9 °F -25.5 °F -6.0 °F 79% 29.94 in 9.0 mi ESE 25.3 mph - N/A   Scattered Clouds
5:53 AM -0.0 °F -23.8 °F -5.1 °F 79% 29.94 in 10.0 mi East 24.2 mph 31.1 mph N/A   Overcast
6:53 AM -0.9 °F -26.3 °F -6.0 °F 79% 29.94 in 8.0 mi East 27.6 mph - N/A   Scattered Clouds
7:53 AM -2.9 °F -26.7 °F -8.0 °F 79% 29.93 in 10.0 mi East 21.9 mph - N/A   Scattered Clouds
8:53 AM -4.0 °F -27.6 °F -9.0 °F 79% 29.93 in 10.0 mi East 20.7 mph - N/A   Mostly Cloudy
9:46 AM -5.8 °F -25.2 °F -11.2 °F 77% 29.93 in 10.0 mi East 12.7 mph - N/A   Scattered Clouds
9:53 AM -5.1 °F -25.9 °F -11.0 °F 76% 29.93 in 10.0 mi East 15.0 mph - N/A   Overcast
10:53 AM -5.1 °F -23.5 °F -9.9 °F 80% 29.93 in 10.0 mi East 11.5 mph - N/A   Overcast
11:53 AM -4.0 °F -27.6 °F -9.0 °F 79% 29.92 in 7.0 mi East 20.7 mph - N/A   Overcast
12:53 PM -5.1 °F -27.8 °F -9.9 °F 80% 29.92 in 10.0 mi East 18.4 mph - N/A   Overcast
1:53 PM -4.0 °F -25.2 °F -9.9 °F 76% 29.92 in 10.0 mi East 16.1 mph - N/A   Overcast
2:53 PM -4.0 °F -25.2 °F -9.0 °F 79% 29.91 in 9.0 mi East 16.1 mph - N/A   Mostly Cloudy
3:53 PM -2.9 °F -22.4 °F -8.0 °F 79% 29.91 in 10.0 mi East 13.8 mph - N/A   Mostly Cloudy
4:53 PM -2.0 °F -20.5 °F -8.0 °F 76% 29.90 in 10.0 mi East 12.7 mph - N/A   Overcast
5:53 PM -2.0 °F -21.2 °F -8.0 °F 76% 29.89 in 10.0 mi East 13.8 mph - N/A   Overcast
6:53 PM -4.0 °F -19.0 °F -9.0 °F 79% 29.89 in 10.0 mi East 8.1 mph - N/A   Overcast
7:53 PM -7.1 °F - -11.9 °F 79% 29.89 in 10.0 mi Calm Calm - N/A   Overcast
8:53 PM -7.1 °F -15.9 °F -11.9 °F 79% 29.88 in 10.0 mi WSW 3.5 mph - N/A   Overcast
9:53 PM -6.0 °F -18.6 °F -11.0 °F 79% 29.88 in 10.0 mi West 5.8 mph - N/A   Overcast
10:53 PM -4.0 °F -12.4 °F -8.0 °F 83% 29.87 in 10.0 mi West 3.5 mph - N/A   Overcast
11:53 PM -5.1 °F -19.1 °F -9.9 °F 80% 29.88 in 10.0 mi WSW 6.9 mph - N/A   Overcast